sat.trackr.live / text

‹ back to catalog

OPTICUBE 04

NORAD 41851 · 2016-067D

PAYLOAD ACTIVE UNKNOWN

§ Identity

Operator
Country
US
Launch date
2016-11-11
Launch site
AFWTR
Launch vehicle
Mass (kg)
RCS (m²)
0.07

Purposes: tech_demo

External: N2YO · Heavens-Above · Gunter

§ Orbital elements

Epoch: 2026-09-20T01:11:10.402080Z

Period
95.37 min
Inclination
98.0576°
Eccentricity
0.0016010
Mean motion
15.09986355 rev/d
Perigee alt
525.2 km
Apogee alt
547.3 km
Semi-major
6,914.4 km
B*
7.5086e-5
RAAN
120.2545°
Arg perigee
151.9131°
Mean anomaly
208.2964°
Rev number
53,948

§ Raw data

OPTICUBE 041 41851U 16067D   26263.04942595  .00001151  00000+0  75086-4 0  99932 41851  98.0576 120.2545 0016010 151.9131 208.2964 15.09986355539485

JSON: /api/v1/satellites/41851 · /tle

For live sub-satellite position, see the globe view (requires WebGL).

§ Visibility from observer

Set your observer location to see the next 7 days of passes ≥ 10°. The values pass through the URL so the page stays shareable.

No JS? Fill the form by hand. The geolocation button needs JavaScript.